TAP1036 LPPT-LEBL

Flight info

Callsign TAP1036
Flight time 1h 47m
Altitude 34000
Route ORVED DCT UREDI DCT DIPOL DCT RBO DCT PINAR DCT SEGRE DCT BRITO DCT PISUS DCT PONEN T600 CASPE
Aircraft A320/M-SDE3FGHIRWY/LB1

Departure

Time 2026-05-04 18:05
Airport Lisbon Humberto Delgado Airport (LPPT)

Arrival

Time 2026-05-04 19:52
Airport Josep Tarradellas Barcelona-El Prat Airport (LEBL)
Time Latitude Longitude Altitude Speed Heading
2026-05-04 17:43 38.77027 -9.13091 334 ft 0 kts 78°
2026-05-04 17:55 38.77027 -9.13092 337 ft 1 kts 77°
2026-05-04 17:55 38.77024 -9.13110 334 ft 3 kts 82°
2026-05-04 17:55 38.77022 -9.13136 334 ft 3 kts 92°
2026-05-04 17:55 38.77024 -9.13161 335 ft 3 kts 114°
2026-05-04 17:56 38.77034 -9.13179 334 ft 2 kts 160°
2026-05-04 17:56 38.77042 -9.13183 334 ft 1 kts 168°
2026-05-04 17:56 38.77043 -9.13183 334 ft 0 kts 168°
2026-05-04 17:59 38.77042 -9.13182 334 ft 1 kts 168°
2026-05-04 17:59 38.77015 -9.13176 334 ft 6 kts 168°
2026-05-04 17:59 38.76912 -9.13149 334 ft 6 kts 165°
2026-05-04 18:00 38.76856 -9.13132 338 ft 12 kts 167°
2026-05-04 18:00 38.76783 -9.13153 339 ft 10 kts 241°
2026-05-04 18:00 38.76768 -9.13245 338 ft 12 kts 258°
2026-05-04 18:00 38.76748 -9.13357 343 ft 13 kts 251°
2026-05-04 18:01 38.76675 -9.13441 349 ft 17 kts 214°
2026-05-04 18:01 38.76637 -9.13582 349 ft 17 kts 258°
2026-05-04 18:01 38.76612 -9.13736 348 ft 18 kts 257°
2026-05-04 18:02 38.76531 -9.14052 357 ft 20 kts 225°
2026-05-04 18:02 38.76502 -9.14200 345 ft 18 kts 291°
2026-05-04 18:02 38.76548 -9.14334 333 ft 18 kts 294°
2026-05-04 18:02 38.76585 -9.14414 334 ft 6 kts 346°
2026-05-04 18:03 38.76611 -9.14406 334 ft 0 kts 22°
2026-05-04 18:04 38.76617 -9.14403 332 ft 6 kts 22°
2026-05-04 18:04 38.76852 -9.14279 348 ft 72 kts 23°
2026-05-04 18:04 38.78493 -9.13404 465 ft 166 kts 18°
2026-05-04 18:05 38.79548 -9.12843 1167 ft 164 kts 19°
2026-05-04 18:05 38.80609 -9.12273 1811 ft 171 kts 17°
2026-05-04 18:05 38.81753 -9.11622 2171 ft 193 kts 25°
2026-05-04 18:05 38.82960 -9.10608 2467 ft 221 kts 28°
2026-05-04 18:06 38.85829 -9.08365 3601 ft 252 kts 27°
2026-05-04 18:06 38.87347 -9.07209 4525 ft 255 kts 26°
2026-05-04 18:06 38.88881 -9.06004 5409 ft 259 kts 33°
2026-05-04 18:07 38.90130 -9.04275 6181 ft 275 kts 58°
2026-05-04 18:07 38.90958 -9.02018 6949 ft 281 kts 63°
2026-05-04 18:07 38.91787 -8.99704 7719 ft 287 kts 62°
2026-05-04 18:07 38.92640 -8.97362 8509 ft 292 kts 62°
2026-05-04 18:08 38.93507 -8.95007 9299 ft 297 kts 62°
2026-05-04 18:08 38.94398 -8.92596 10110 ft 301 kts 62°
2026-05-04 18:08 38.95328 -8.90108 10544 ft 319 kts 61°
2026-05-04 18:08 38.96327 -8.87453 10789 ft 341 kts 61°
2026-05-04 18:09 38.98435 -8.81811 12042 ft 356 kts 62°
2026-05-04 18:09 39.00594 -8.75992 13426 ft 366 kts 62°
2026-05-04 18:10 39.01699 -8.73014 14071 ft 371 kts 61°
2026-05-04 18:10 39.02819 -8.69992 14661 ft 376 kts 62°
2026-05-04 18:10 39.03949 -8.66932 15262 ft 381 kts 62°
2026-05-04 18:10 39.05091 -8.63839 15855 ft 386 kts 62°
2026-05-04 18:11 39.06250 -8.60704 16450 ft 390 kts 62°
2026-05-04 18:11 39.07419 -8.57535 17040 ft 394 kts 62°
2026-05-04 18:11 39.08601 -8.54326 17641 ft 399 kts 62°
2026-05-04 18:11 39.09796 -8.51081 18208 ft 403 kts 62°
2026-05-04 18:12 39.11004 -8.47801 18729 ft 408 kts 62°
2026-05-04 18:12 39.12226 -8.44474 19224 ft 412 kts 62°
2026-05-04 18:12 39.13457 -8.41122 19727 ft 416 kts 62°
2026-05-04 18:12 39.14699 -8.37730 20230 ft 421 kts 61°
2026-05-04 18:13 39.15970 -8.34260 20729 ft 425 kts 61°
2026-05-04 18:13 39.17235 -8.30803 21220 ft 429 kts 61°
2026-05-04 18:13 39.19803 -8.23779 22213 ft 437 kts 62°
2026-05-04 18:14 39.21100 -8.20210 22699 ft 442 kts 61°
2026-05-04 18:14 39.22407 -8.16608 23185 ft 446 kts 61°
2026-05-04 18:14 39.23729 -8.12972 23647 ft 450 kts 61°
2026-05-04 18:15 39.26402 -8.05604 24423 ft 457 kts 61°
2026-05-04 18:15 39.28605 -7.99356 25050 ft 463 kts 64°
2026-05-04 18:15 39.29810 -7.95480 25418 ft 467 kts 66°
2026-05-04 18:16 39.30936 -7.91530 25783 ft 471 kts 67°
2026-05-04 18:16 39.32027 -7.87527 26143 ft 474 kts 68°
2026-05-04 18:16 39.33121 -7.83498 26488 ft 477 kts 68°
2026-05-04 18:17 39.35396 -7.75333 27164 ft 483 kts 66°
2026-05-04 18:17 39.36564 -7.71249 27502 ft 486 kts 66°
2026-05-04 18:17 39.39117 -7.63134 28153 ft 488 kts 59°
2026-05-04 18:18 39.40658 -7.59208 28464 ft 491 kts 59°
2026-05-04 18:18 39.42198 -7.55251 28786 ft 494 kts 59°
2026-05-04 18:18 39.43735 -7.51264 29087 ft 497 kts 59°
2026-05-04 18:18 39.45276 -7.47251 29390 ft 500 kts 59°
2026-05-04 18:19 39.48374 -7.39150 29952 ft 505 kts 60°
2026-05-04 18:19 39.49934 -7.35060 30201 ft 508 kts 60°
2026-05-04 18:19 39.51502 -7.30953 30432 ft 510 kts 59°
2026-05-04 18:20 39.53075 -7.26828 30666 ft 512 kts 60°
2026-05-04 18:20 39.54654 -7.22687 30893 ft 514 kts 60°
2026-05-04 18:20 39.56239 -7.18531 31122 ft 515 kts 60°
2026-05-04 18:20 39.57833 -7.14348 31340 ft 517 kts 60°
2026-05-04 18:21 39.59418 -7.10175 31660 ft 516 kts 60°
2026-05-04 18:21 39.60998 -7.06006 31939 ft 516 kts 60°
2026-05-04 18:21 39.64159 -6.97647 32014 ft 515 kts 60°
2026-05-04 18:22 39.67305 -6.89302 32011 ft 515 kts 60°
2026-05-04 18:22 39.70455 -6.80927 32333 ft 516 kts 60°
2026-05-04 18:23 39.72026 -6.76737 32654 ft 515 kts 60°
2026-05-04 18:23 39.73595 -6.72554 32955 ft 515 kts 60°
2026-05-04 18:23 39.75161 -6.68379 33265 ft 514 kts 60°
2026-05-04 18:23 39.76726 -6.64196 33581 ft 514 kts 60°
2026-05-04 18:24 39.78286 -6.60021 33893 ft 514 kts 60°
2026-05-04 18:24 39.79843 -6.55850 33977 ft 509 kts 60°
2026-05-04 18:24 39.82906 -6.47627 33993 ft 503 kts 60°
2026-05-04 18:25 39.85945 -6.39447 33983 ft 502 kts 61°
2026-05-04 18:25 39.88871 -6.31059 33985 ft 515 kts 63°
2026-05-04 18:26 39.91671 -6.22433 33974 ft 518 kts 64°
2026-05-04 18:26 39.94463 -6.13777 33974 ft 518 kts 64°
2026-05-04 18:27 39.97313 -6.05150 33971 ft 518 kts 63°
2026-05-04 18:27 40.00182 -5.96533 33977 ft 518 kts 64°
2026-05-04 18:28 40.03022 -5.87892 33975 ft 518 kts 64°
2026-05-04 18:28 40.05852 -5.79230 33980 ft 518 kts 64°
2026-05-04 18:29 40.08684 -5.70579 33982 ft 519 kts 64°
2026-05-04 18:29 40.11514 -5.61905 33984 ft 519 kts 64°
2026-05-04 18:30 40.15736 -5.48889 33995 ft 519 kts 65°
2026-05-04 18:31 40.18540 -5.40201 33988 ft 519 kts 65°
2026-05-04 18:31 40.21338 -5.31500 33988 ft 519 kts 65°
2026-05-04 18:32 40.24137 -5.22798 33984 ft 519 kts 65°
2026-05-04 18:32 40.26945 -5.14044 33985 ft 518 kts 65°
2026-05-04 18:33 40.29718 -5.05332 33985 ft 518 kts 65°
2026-05-04 18:33 40.32490 -4.96613 33985 ft 518 kts 65°
2026-05-04 18:34 40.35257 -4.87905 33985 ft 518 kts 65°
2026-05-04 18:34 40.38019 -4.79184 33988 ft 517 kts 65°
2026-05-04 18:35 40.40760 -4.70471 33992 ft 516 kts 66°
2026-05-04 18:35 40.43468 -4.61826 33980 ft 510 kts 66°
2026-05-04 18:36 40.46164 -4.53218 33982 ft 510 kts 66°
2026-05-04 18:36 40.48859 -4.44605 33981 ft 509 kts 66°
2026-05-04 18:37 40.51541 -4.35987 33983 ft 509 kts 66°
2026-05-04 18:37 40.54209 -4.27360 33990 ft 509 kts 66°
2026-05-04 18:38 40.56873 -4.18734 33997 ft 509 kts 66°
2026-05-04 18:38 40.59535 -4.10094 34005 ft 509 kts 66°
2026-05-04 18:39 40.62186 -4.01462 34007 ft 509 kts 66°
2026-05-04 18:39 40.64831 -3.92822 34011 ft 508 kts 67°
2026-05-04 18:40 40.67465 -3.84177 34012 ft 508 kts 67°
2026-05-04 18:40 40.70093 -3.75532 34013 ft 508 kts 67°
2026-05-04 18:41 40.72715 -3.66894 34010 ft 507 kts 67°
2026-05-04 18:41 40.75327 -3.58264 34005 ft 507 kts 67°
2026-05-04 18:42 40.77930 -3.49624 33993 ft 506 kts 68°
2026-05-04 18:42 40.80519 -3.40990 33987 ft 505 kts 68°
2026-05-04 18:43 40.83096 -3.32357 33976 ft 505 kts 68°
2026-05-04 18:43 40.85575 -3.23693 33968 ft 504 kts 74°
2026-05-04 18:44 40.87343 -3.14762 33981 ft 503 kts 76°
2026-05-04 18:44 40.89099 -3.05828 33988 ft 500 kts 76°
2026-05-04 18:45 40.90850 -2.96942 33983 ft 498 kts 76°
2026-05-04 18:45 40.92599 -2.88033 33985 ft 497 kts 76°
2026-05-04 18:46 40.94319 -2.79195 33980 ft 495 kts 76°
2026-05-04 18:46 40.95738 -2.71867 33974 ft 494 kts 76°
2026-05-04 18:47 40.97426 -2.63057 33976 ft 494 kts 76°
2026-05-04 18:47 40.99113 -2.54241 33974 ft 493 kts 76°
2026-05-04 18:48 41.00795 -2.45443 33977 ft 493 kts 76°
2026-05-04 18:48 41.02468 -2.36651 33975 ft 492 kts 77°
2026-05-04 18:49 41.04139 -2.27855 33979 ft 492 kts 77°
2026-05-04 18:49 41.05800 -2.19061 33982 ft 492 kts 77°
2026-05-04 18:50 41.07451 -2.10270 33978 ft 491 kts 77°
2026-05-04 18:50 41.09094 -2.01485 33978 ft 491 kts 77°
2026-05-04 18:51 41.10732 -1.92685 33981 ft 491 kts 77°
2026-05-04 18:51 41.12354 -1.83892 33982 ft 490 kts 77°
2026-05-04 18:52 41.13972 -1.75099 33982 ft 490 kts 77°
2026-05-04 18:52 41.15581 -1.66317 33988 ft 489 kts 77°
2026-05-04 18:53 41.17183 -1.57539 33986 ft 488 kts 78°
2026-05-04 18:53 41.18775 -1.48789 33987 ft 488 kts 78°
2026-05-04 18:54 41.20358 -1.40026 33985 ft 487 kts 78°
2026-05-04 18:54 41.21928 -1.31285 33994 ft 487 kts 78°
2026-05-04 18:55 41.23496 -1.22529 33991 ft 487 kts 78°
2026-05-04 18:55 41.25843 -1.09406 33987 ft 486 kts 78°
2026-05-04 18:56 41.27405 -1.00601 33984 ft 486 kts 78°
2026-05-04 18:56 41.28942 -0.91853 33980 ft 486 kts 79°
2026-05-04 18:57 41.30479 -0.83095 33982 ft 486 kts 79°
2026-05-04 18:57 41.32004 -0.74334 33982 ft 485 kts 79°
2026-05-04 18:58 41.33510 -0.65638 33971 ft 485 kts 79°
2026-05-04 18:58 41.34869 -0.56865 33964 ft 482 kts 87°
2026-05-04 18:59 41.34640 -0.48058 33955 ft 473 kts 103°
2026-05-04 18:59 41.33661 -0.39392 33951 ft 474 kts 103°
2026-05-04 19:00 41.32692 -0.30723 33958 ft 473 kts 103°
2026-05-04 19:00 41.31717 -0.22065 33519 ft 465 kts 103°
2026-05-04 19:01 41.31237 -0.17826 32938 ft 462 kts 103°
2026-05-04 19:01 41.30755 -0.13620 32357 ft 459 kts 103°
2026-05-04 19:01 41.30272 -0.09429 31794 ft 457 kts 103°
2026-05-04 19:01 41.29791 -0.05265 31240 ft 455 kts 103°
2026-05-04 19:02 41.29311 -0.01111 30685 ft 453 kts 103°
2026-05-04 19:02 41.28831 0.03014 30136 ft 451 kts 103°
2026-05-04 19:02 41.28349 0.07131 29531 ft 449 kts 103°
2026-05-04 19:02 41.27871 0.11207 29019 ft 444 kts 103°
2026-05-04 19:03 41.27403 0.15249 28503 ft 441 kts 101°
2026-05-04 19:03 41.27253 0.19323 27992 ft 441 kts 90°
2026-05-04 19:03 41.27648 0.23351 27648 ft 437 kts 79°
2026-05-04 19:03 41.28461 0.27213 27291 ft 431 kts 75°
2026-05-04 19:04 41.29301 0.31009 26915 ft 426 kts 76°
2026-05-04 19:04 41.30123 0.34767 26579 ft 421 kts 76°
2026-05-04 19:04 41.30934 0.38495 26236 ft 417 kts 76°
2026-05-04 19:04 41.31734 0.42189 25898 ft 414 kts 76°
2026-05-04 19:05 41.32527 0.45858 25561 ft 411 kts 76°
2026-05-04 19:05 41.33318 0.49506 25226 ft 408 kts 76°
2026-05-04 19:05 41.34103 0.53122 24899 ft 406 kts 76°
2026-05-04 19:05 41.34885 0.56719 24573 ft 403 kts 76°
2026-05-04 19:06 41.35661 0.60289 24243 ft 400 kts 76°
2026-05-04 19:06 41.36431 0.63847 23918 ft 397 kts 76°
2026-05-04 19:06 41.37191 0.67370 23596 ft 395 kts 76°
2026-05-04 19:06 41.37947 0.70881 23245 ft 392 kts 76°
2026-05-04 19:07 41.38697 0.74371 22917 ft 390 kts 76°
2026-05-04 19:07 41.39438 0.77835 22605 ft 388 kts 76°
2026-05-04 19:07 41.40177 0.81290 22289 ft 386 kts 76°
2026-05-04 19:07 41.40911 0.84728 21965 ft 385 kts 76°
2026-05-04 19:08 41.41641 0.88150 21664 ft 383 kts 76°
2026-05-04 19:08 41.42367 0.91551 21359 ft 381 kts 76°
2026-05-04 19:08 41.43090 0.94944 21053 ft 379 kts 76°
2026-05-04 19:08 41.43807 0.98321 20746 ft 377 kts 76°
2026-05-04 19:09 41.44518 1.01674 20437 ft 375 kts 76°
2026-05-04 19:09 41.45235 1.05059 20134 ft 388 kts 76°
2026-05-04 19:09 41.45976 1.08587 19792 ft 397 kts 76°
2026-05-04 19:09 41.46715 1.12094 19366 ft 397 kts 76°
2026-05-04 19:10 41.47463 1.15631 18959 ft 395 kts 76°
2026-05-04 19:10 41.48212 1.19167 18550 ft 393 kts 76°
2026-05-04 19:10 41.48959 1.22710 18128 ft 400 kts 76°
2026-05-04 19:10 41.49708 1.26283 17688 ft 400 kts 76°
2026-05-04 19:11 41.50453 1.29849 17279 ft 398 kts 76°
2026-05-04 19:11 41.51196 1.33398 16868 ft 396 kts 76°
2026-05-04 19:11 41.51938 1.36930 16458 ft 394 kts 76°
2026-05-04 19:11 41.52672 1.40437 16056 ft 391 kts 76°
2026-05-04 19:12 41.53398 1.43929 15655 ft 389 kts 76°
2026-05-04 19:12 41.54650 1.50899 14853 ft 382 kts 86°
2026-05-04 19:12 41.54732 1.54423 14486 ft 375 kts 92°
2026-05-04 19:13 41.54754 1.57874 14214 ft 368 kts 92°
2026-05-04 19:13 41.54777 1.61229 13870 ft 353 kts 92°
2026-05-04 19:13 41.54802 1.64424 13370 ft 342 kts 92°
2026-05-04 19:13 41.54824 1.67571 12848 ft 336 kts 92°
2026-05-04 19:14 41.54843 1.70697 12374 ft 337 kts 92°
2026-05-04 19:14 41.54858 1.73702 12074 ft 333 kts 92°
2026-05-04 19:14 41.54873 1.76795 11645 ft 332 kts 92°
2026-05-04 19:14 41.54887 1.79802 11380 ft 317 kts 92°
2026-05-04 19:15 41.54902 1.82720 10933 ft 308 kts 91°
2026-05-04 19:15 41.54919 1.85544 10500 ft 300 kts 91°
2026-05-04 19:15 41.54930 1.88277 10116 ft 289 kts 94°
2026-05-04 19:15 41.54705 1.90894 9739 ft 278 kts 103°
2026-05-04 19:16 41.54367 1.93359 9667 ft 266 kts 103°
2026-05-04 19:16 41.54042 1.95776 9560 ft 263 kts 103°
2026-05-04 19:16 41.53720 1.98176 9425 ft 262 kts 103°
2026-05-04 19:16 41.53397 2.00573 9290 ft 261 kts 103°
2026-05-04 19:17 41.53080 2.02931 9154 ft 260 kts 103°
2026-05-04 19:17 41.52759 2.05311 9026 ft 260 kts 103°
2026-05-04 19:17 41.52434 2.07699 8880 ft 260 kts 103°
2026-05-04 19:17 41.52220 2.09271 8801 ft 260 kts 103°
2026-05-04 19:18 41.52015 2.11667 8689 ft 261 kts 92°
2026-05-04 19:18 41.52070 2.14089 8576 ft 262 kts 90°
2026-05-04 19:18 41.52137 2.16519 8447 ft 261 kts 90°
2026-05-04 19:18 41.52204 2.18935 8316 ft 260 kts 90°
2026-05-04 19:19 41.52270 2.21348 8198 ft 259 kts 91°
2026-05-04 19:19 41.52028 2.23703 8078 ft 254 kts 113°
2026-05-04 19:19 41.51205 2.25737 7957 ft 247 kts 134°
2026-05-04 19:19 41.49950 2.27245 7765 ft 240 kts 154°
2026-05-04 19:20 41.48465 2.28213 7587 ft 237 kts 161°
2026-05-04 19:20 41.46998 2.29217 7407 ft 240 kts 146°
2026-05-04 19:20 41.45987 2.31001 7229 ft 249 kts 112°
2026-05-04 19:20 41.45853 2.33296 7046 ft 253 kts 76°
2026-05-04 19:21 41.46506 2.35487 6860 ft 255 kts 65°
2026-05-04 19:21 41.47245 2.37637 6675 ft 255 kts 65°
2026-05-04 19:21 41.47984 2.39785 6498 ft 254 kts 65°
2026-05-04 19:21 41.48719 2.41924 6340 ft 253 kts 65°
2026-05-04 19:22 41.49452 2.44063 6157 ft 252 kts 65°
2026-05-04 19:22 41.50180 2.46187 6043 ft 252 kts 65°
2026-05-04 19:22 41.50907 2.48305 5993 ft 251 kts 65°
2026-05-04 19:22 41.51634 2.50426 5996 ft 251 kts 65°
2026-05-04 19:23 41.52347 2.52507 5954 ft 242 kts 65°
2026-05-04 19:23 41.53039 2.54514 5757 ft 236 kts 65°
2026-05-04 19:23 41.53721 2.56496 5512 ft 233 kts 65°
2026-05-04 19:23 41.54391 2.58456 5253 ft 231 kts 68°
2026-05-04 19:24 41.54642 2.60518 5037 ft 221 kts 103°
2026-05-04 19:24 41.54013 2.62292 4989 ft 209 kts 141°
2026-05-04 19:24 41.52788 2.63175 4992 ft 198 kts 178°
2026-05-04 19:24 41.51425 2.63163 5003 ft 196 kts 190°
2026-05-04 19:25 41.50077 2.62941 4995 ft 195 kts 192°
2026-05-04 19:25 41.48755 2.62670 4996 ft 193 kts 198°
2026-05-04 19:25 41.47630 2.61796 4996 ft 187 kts 227°
2026-05-04 19:25 41.46877 2.60388 5003 ft 187 kts 243°
2026-05-04 19:26 41.46389 2.58777 5002 ft 187 kts 250°
2026-05-04 19:26 41.45952 2.57147 5001 ft 187 kts 250°
2026-05-04 19:26 41.45632 2.55474 4997 ft 187 kts 255°
2026-05-04 19:26 41.45226 2.53761 5003 ft 197 kts 249°
2026-05-04 19:27 41.44703 2.52062 5003 ft 199 kts 246°
2026-05-04 19:27 41.44143 2.50370 5004 ft 200 kts 246°
2026-05-04 19:27 41.43576 2.48682 5005 ft 199 kts 246°
2026-05-04 19:27 41.43008 2.46997 4999 ft 199 kts 246°
2026-05-04 19:28 41.42438 2.45309 5002 ft 200 kts 246°
2026-05-04 19:28 41.41867 2.43617 5005 ft 200 kts 246°
2026-05-04 19:28 41.41295 2.41925 4979 ft 200 kts 246°
2026-05-04 19:28 41.40725 2.40239 4792 ft 196 kts 246°
2026-05-04 19:29 41.40169 2.38596 4551 ft 193 kts 246°
2026-05-04 19:29 41.39624 2.36986 4298 ft 192 kts 246°
2026-05-04 19:29 41.39071 2.35353 4039 ft 190 kts 246°
2026-05-04 19:29 41.38528 2.33750 3789 ft 188 kts 246°
2026-05-04 19:30 41.37998 2.32185 3551 ft 187 kts 246°
2026-05-04 19:30 41.37462 2.30607 3301 ft 186 kts 246°
2026-05-04 19:30 41.36928 2.29034 3058 ft 185 kts 246°
2026-05-04 19:30 41.36397 2.27471 2808 ft 185 kts 246°
2026-05-04 19:31 41.35867 2.25911 2554 ft 185 kts 246°
2026-05-04 19:31 41.35343 2.24369 2351 ft 178 kts 246°
2026-05-04 19:31 41.34846 2.22910 2083 ft 167 kts 246°
2026-05-04 19:31 41.34379 2.21538 1858 ft 159 kts 246°
2026-05-04 19:32 41.33936 2.20236 1677 ft 147 kts 246°
2026-05-04 19:32 41.33530 2.19044 1469 ft 138 kts 247°
2026-05-04 19:32 41.33141 2.17905 1292 ft 133 kts 246°
2026-05-04 19:32 41.32757 2.16778 1103 ft 134 kts 246°
2026-05-04 19:33 41.32369 2.15641 913 ft 135 kts 246°
2026-05-04 19:33 41.31981 2.14502 733 ft 135 kts 245°
2026-05-04 19:33 41.31591 2.13361 553 ft 135 kts 245°
2026-05-04 19:33 41.31206 2.12233 367 ft 133 kts 245°
2026-05-04 19:34 41.30825 2.11116 201 ft 131 kts 245°
2026-05-04 19:34 41.30409 2.09913 326 ft 159 kts 244°
2026-05-04 19:34 41.29944 2.08596 1300 ft 158 kts 245°
2026-05-04 19:34 41.29447 2.07224 1747 ft 174 kts 244°
2026-05-04 19:35 41.28874 2.05684 2040 ft 198 kts 244°
2026-05-04 19:35 41.28239 2.03991 2644 ft 208 kts 244°
2026-05-04 19:35 41.27578 2.02245 2936 ft 213 kts 244°
2026-05-04 19:35 41.26885 2.00415 2992 ft 226 kts 244°
2026-05-04 19:36 41.26172 1.98537 3009 ft 228 kts 244°
2026-05-04 19:36 41.25457 1.96654 3009 ft 229 kts 244°
2026-05-04 19:36 41.24741 1.94767 3007 ft 229 kts 244°
2026-05-04 19:36 41.24022 1.92879 3008 ft 229 kts 244°
2026-05-04 19:37 41.23305 1.90993 3008 ft 229 kts 244°
2026-05-04 19:37 41.22587 1.89105 3006 ft 229 kts 243°
2026-05-04 19:37 41.21547 1.87511 3006 ft 232 kts 213°
2026-05-04 19:37 41.20001 1.86892 3009 ft 238 kts 182°
2026-05-04 19:38 41.18413 1.87454 3008 ft 245 kts 150°
2026-05-04 19:38 41.17221 1.89082 3009 ft 254 kts 119°
2026-05-04 19:38 41.16768 1.91443 3011 ft 272 kts 89°
2026-05-04 19:38 41.17158 1.93898 3009 ft 275 kts 70°
2026-05-04 19:39 41.17846 1.96274 3006 ft 276 kts 67°
2026-05-04 19:39 41.18570 1.98639 3009 ft 276 kts 67°
2026-05-04 19:39 41.19302 2.01006 3009 ft 276 kts 67°
2026-05-04 19:39 41.20033 2.03376 3007 ft 277 kts 67°
2026-05-04 19:40 41.20763 2.05740 3006 ft 277 kts 67°
2026-05-04 19:40 41.21496 2.08114 3007 ft 277 kts 67°
2026-05-04 19:40 41.22229 2.10482 3009 ft 277 kts 67°
2026-05-04 19:40 41.22962 2.12852 3009 ft 277 kts 67°
2026-05-04 19:41 41.23694 2.15222 3009 ft 277 kts 67°
2026-05-04 19:41 41.24422 2.17588 3009 ft 276 kts 67°
2026-05-04 19:41 41.25151 2.19954 3008 ft 277 kts 67°
2026-05-04 19:41 41.25877 2.22324 3011 ft 277 kts 67°
2026-05-04 19:42 41.26607 2.24693 3010 ft 277 kts 67°
2026-05-04 19:42 41.27339 2.27052 3009 ft 276 kts 67°
2026-05-04 19:42 41.28077 2.29422 3007 ft 277 kts 67°
2026-05-04 19:42 41.28813 2.31783 3007 ft 277 kts 67°
2026-05-04 19:43 41.29554 2.34149 3023 ft 278 kts 67°
2026-05-04 19:43 41.30298 2.36528 3023 ft 277 kts 67°
2026-05-04 19:43 41.31030 2.38873 3019 ft 278 kts 67°
2026-05-04 19:43 41.31770 2.41250 3018 ft 278 kts 67°
2026-05-04 19:44 41.32506 2.43614 3001 ft 268 kts 67°
2026-05-04 19:44 41.33280 2.45772 3008 ft 251 kts 52°
2026-05-04 19:44 41.34586 2.47206 3011 ft 242 kts 19°
2026-05-04 19:44 41.36206 2.47514 3010 ft 234 kts 346°
2026-05-04 19:45 41.37720 2.46817 3012 ft 229 kts 327°
2026-05-04 19:45 41.38976 2.45554 3005 ft 224 kts 310°
2026-05-04 19:45 41.39871 2.43884 3007 ft 220 kts 293°
2026-05-04 19:45 41.40349 2.41965 3005 ft 218 kts 277°
2026-05-04 19:46 41.40384 2.39949 3008 ft 217 kts 261°
2026-05-04 19:46 41.39993 2.38069 3003 ft 207 kts 246°
2026-05-04 19:46 41.39400 2.36329 3007 ft 206 kts 246°
2026-05-04 19:46 41.38811 2.34587 3020 ft 206 kts 246°
2026-05-04 19:47 41.38414 2.33414 3023 ft 206 kts 246°
2026-05-04 19:47 41.37825 2.31678 3023 ft 206 kts 246°
2026-05-04 19:47 41.37234 2.29936 3024 ft 206 kts 246°
2026-05-04 19:47 41.36650 2.28216 2890 ft 205 kts 246°
2026-05-04 19:48 41.36064 2.26492 2649 ft 202 kts 246°
2026-05-04 19:48 41.35487 2.24794 2399 ft 200 kts 246°
2026-05-04 19:48 41.34915 2.23113 2135 ft 198 kts 246°
2026-05-04 19:48 41.34349 2.21448 1879 ft 196 kts 246°
2026-05-04 19:49 41.33810 2.19867 1643 ft 182 kts 246°
2026-05-04 19:49 41.33306 2.18388 1382 ft 168 kts 246°
2026-05-04 19:49 41.32848 2.17046 1167 ft 151 kts 246°
2026-05-04 19:49 41.32433 2.15829 968 ft 140 kts 245°
2026-05-04 19:50 41.32038 2.14667 777 ft 135 kts 245°
2026-05-04 19:50 41.31655 2.13538 590 ft 133 kts 244°
2026-05-04 19:50 41.31273 2.12428 390 ft 132 kts 244°
2026-05-04 19:50 41.30896 2.11327 242 ft 130 kts 245°
2026-05-04 19:51 41.30530 2.10238 52 ft 128 kts 244°
2026-05-04 19:51 41.30189 2.09263 17 ft 96 kts 245°
2026-05-04 19:51 41.29961 2.08590 25 ft 69 kts 246°
2026-05-04 19:51 41.29785 2.08085 20 ft 50 kts 244°
2026-05-04 19:52 41.29627 2.07861 16 ft 22 kts 218°
2026-05-04 19:52 41.29541 2.07777 16 ft 12 kts 215°
2026-05-04 19:52 41.29496 2.07785 17 ft 6 kts 146°
2026-05-04 19:52 41.29451 2.07826 17 ft 11 kts 149°
2026-05-04 19:53 41.29368 2.07876 17 ft 13 kts 155°
2026-05-04 19:53 41.29287 2.07925 19 ft 12 kts 155°
2026-05-04 19:53 41.29258 2.07946 19 ft 4 kts 137°
2026-05-04 19:53 41.29225 2.07982 19 ft 6 kts 154°
2026-05-04 19:54 41.29192 2.08002 19 ft 4 kts 155°
2026-05-04 19:54 41.29178 2.08010 19 ft 1 kts 155°
2026-05-04 19:54 41.29177 2.08011 19 ft 0 kts 155°